User: anonymous   Login
Location: Unspecified
(0.0000°N, 0.0000°E)
Time: 05:21:04
(UTC+00:00)
Language:

PAYLOAD D - Orbit

View from above orbital plane
View from above orbital plane
View from above satellite
View from above satellite

Ground track
Ground track

The orbit data is extracted from the following two-line orbital elements,

1 27058U 01058D   18146.46299805 -.00000017 +00000-0 -15552-3 0  9990
2 27058 082.5318 290.2768 0003278 169.8142 190.3011 12.62021014755962
Epoch (UTC): 26 May 2018 11:06:43
Eccentricity: 0.0003278
inclination: 82.5318°
perigee height: 1412 km
apogee height: 1417 km
right ascension of ascending node: 290.2768°
argument of perigee: 169.8142°
revolutions per day: 12.62021014
mean anomaly at epoch: 190.3011°
orbit number at epoch: 75596

The dashed part of the orbit path shows where the satellite is in the earth's shadow,  

DLR